{"data":{"norad_id":56787,"intl_designator":"2023-078W","name":"STARLINK-6326","alt_names":[],"object_type":"PAYLOAD","status":"ACTIVE","operator":null,"country":"US","launch_date":"2023-05-31","launch_site_code":"AFWTR","launch_vehicle":null,"mission":null,"orbit_class":"UNKNOWN","rcs_meters":null,"size_class":null,"mass_kg":null,"dimensions":null,"purposes":["comms"],"wikipedia_slug":null,"has_3d_model":false,"image_url":null,"decayed_at":null,"tle_current":{"epoch":"2026-05-25T02:45:21.193632Z","epoch_age_seconds":59163,"freshness":"FRESH","line1":"1 56787U 23078W   26145.11482863  .00000435  00000+0  44226-4 0  9997","line2":"2 56787  69.9986 131.6694 0003439 266.0384  94.0382 14.98319194164624","mean_motion":14.98319194,"eccentricity":0.0003439,"inclination_deg":69.9986,"raan_deg":131.6694,"arg_perigee_deg":266.0384,"mean_anomaly_deg":94.0382,"bstar":4.4226e-5,"rev_number":16462,"period_min":96.107692257195,"perigee_km":569.69912498161,"apogee_km":574.47949063612,"semimajor_km":6950.2263078089,"source":"CELESTRAK","updated_at":"2026-05-25T13:38:18.155692Z"}}}